Location: Moscow
(55.7500°N, 37.5830°E)
Time: 23:51:23
(UTC+03:00)

COSMOS 2251 DEB - Pass Details

Date: 12 July 2022
Orbit: 738 x 847 km, 74.1° (Epoch: 17 August)

Event Time Altitude Azimuth Distance (km) Brightness Sun altitude
Rises 00:31:13 0° 329° (NNW) 3,239 ? -12.2°
Reaches altitude 10° 00:34:22 10° 348° (NNW) 2,293 ? -12.2°
Maximum altitude 00:37:55 18° 32° (NNE) 1,774 ? -12.2°
Drops below altitude 10° 00:41:25 10° 76° (ENE) 2,260 ? -12.2°
Sets 00:44:29 0° 95° (E) 3,175 ? -12.2°
